period_start,C,m1,H,J0,J1,J2,J3,J4,J5,JA,JB,JC,JD,JJ,JK,JN,#
2018-05-11 00:00:51,0.02,0.09,0.00,24.94,28.17,31.10,13.85,47.17,1019.85,2022.96,3435.22,3056.00,3511.03,599.88,593.74,4.18,0000 0000 0000 0000 000000
2018-05-11 00:05:52,0.02,0.09,0.00,25.00,28.17,31.11,13.86,47.22,1019.65,2022.90,3434.85,3055.72,3510.62,599.94,593.81,4.23,0000 0000 0000 0000 000000
2018-05-11 00:10:54,-0.01,0.09,0.00,25.00,28.19,31.11,13.76,47.23,1019.72,2022.56,3434.06,3055.06,3510.02,599.45,593.45,4.28,0000 0000 0000 0000 000000
2018-05-11 00:15:55,0.01,0.09,0.00,24.99,28.20,31.12,13.85,47.20,1019.63,2022.30,3433.36,3054.84,3509.58,599.65,593.53,4.33,0000 0000 0000 0000 000000
2018-05-11 00:20:56,0.01,0.09,0.00,25.03,28.22,31.13,13.88,47.17,1019.58,2022.10,3432.94,3054.07,3509.01,599.85,593.51,4.38,0000 0000 0000 0000 000000
2018-05-11 00:25:57,0.02,0.09,0.00,25.08,28.23,31.13,13.82,47.11,1019.58,2022.04,3432.11,3053.98,3508.52,599.81,593.41,4.43,0000 0000 0000 0000 000000
2018-05-11 00:30:58,0.02,0.09,0.00,25.07,28.25,31.18,13.84,47.31,1019.58,2022.02,3431.84,3053.39,3508.01,600.11,593.71,4.48,0000 0000 0000 0000 000000
2018-05-11 00:35:59,0.02,0.09,0.00,25.08,28.26,31.20,13.93,47.39,1019.63,2022.02,3431.06,3053.01,3507.58,600.25,593.84,4.53,0000 0000 0000 0000 000000
2018-05-11 00:41:00,0.03,0.10,0.00,25.15,28.28,31.26,13.94,47.29,1019.59,2022.00,3430.47,3052.72,3507.01,600.27,593.83,4.58,0000 0000 0000 0000 000000
2018-05-11 00:46:02,0.03,0.10,0.00,25.16,28.30,31.20,13.75,47.19,1019.60,2022.00,3429.84,3052.03,3506.48,599.73,593.25,4.63,0000 0000 0000 0000 000000
2018-05-11 00:51:03,0.01,0.10,0.00,25.16,28.32,31.25,13.92,47.23,1019.63,2022.00,3429.10,3051.89,3506.00,600.11,593.61,4.68,0000 0000 0000 0000 000000
2018-05-11 00:56:05,0.04,0.10,0.00,25.20,28.34,31.28,13.89,47.15,1019.58,2022.00,3428.59,3051.15,3505.41,600.25,593.41,4.73,0000 0000 0000 0000 000000
2018-05-11 01:01:06,0.00,0.10,0.00,25.22,28.35,31.27,13.88,47.17,1019.56,2021.99,3427.99,3050.98,3504.99,600.15,593.46,4.78,0000 0000 0000 0000 000000
2018-05-11 01:06:08,0.05,0.10,0.00,25.20,28.37,31.31,13.82,47.15,1019.60,2021.97,3427.19,3050.27,3504.30,599.95,593.24,4.83,0000 0000 0000 0000 000000
2018-05-11 01:11:09,-0.00,0.10,0.00,25.23,28.39,31.33,13.84,47.12,1019.58,2021.91,3426.80,3050.00,3503.99,599.98,593.24,4.88,0000 0000 0000 0000 000000
2018-05-11 01:16:10,0.03,0.11,0.00,25.27,28.40,31.33,13.84,47.17,1019.58,2021.85,3426.03,3049.72,3503.46,600.18,593.52,4.93,0000 0000 0000 0000 000000
2018-05-11 01:21:11,0.01,0.11,0.00,25.28,28.42,31.35,13.86,47.17,1019.61,2021.68,3425.58,3049.04,3503.00,600.18,593.41,4.99,0000 0000 0000 0000 000000
2018-05-11 01:26:13,-0.01,0.11,0.00,25.30,28.44,31.38,13.83,47.23,1019.57,2021.38,3425.00,3048.97,3502.46,599.89,593.05,5.04,0000 0000 0000 0000 000000
2018-05-11 01:31:14,0.03,0.11,0.00,25.35,28.46,31.37,13.82,47.26,1019.55,2021.27,3424.44,3048.35,3502.01,599.86,592.91,5.09,0000 0000 0000 0000 000000
2018-05-11 01:36:15,0.01,0.11,0.00,25.36,28.47,31.42,13.84,47.10,1019.56,2021.09,3423.90,3048.01,3501.39,600.07,593.18,5.14,0000 0000 0000 0000 000000
2018-05-11 01:41:16,0.02,0.11,0.00,25.35,28.50,31.42,13.85,47.24,1019.56,2021.04,3423.13,3047.72,3500.99,600.11,593.26,5.19,0000 0000 0000 0000 000000
2018-05-11 01:46:17,0.03,0.11,0.00,25.35,28.51,31.44,13.81,47.17,1019.56,2021.01,3422.67,3047.04,3500.47,599.75,592.80,5.24,0000 0000 0000 0000 000000
2018-05-11 01:51:18,0.01,0.11,0.00,25.40,28.52,31.46,13.75,47.13,1019.56,2021.00,3422.01,3046.90,3500.01,599.60,592.51,5.29,0000 0000 0000 0000 000000
2018-05-11 01:56:19,0.04,0.11,0.00,25.42,28.55,31.46,13.74,47.17,1019.55,2021.00,3421.27,3046.11,3499.58,599.68,592.79,5.34,0000 0000 0000 0000 000000
2018-05-11 02:01:21,0.00,0.11,0.00,25.42,28.56,31.48,13.72,47.13,1019.55,2021.00,3420.93,3046.00,3499.03,599.62,592.57,5.39,0000 0000 0000 0000 000000
2018-05-11 02:06:22,0.04,0.11,0.00,25.45,28.58,31.50,13.86,47.18,1019.56,2021.00,3420.11,3045.56,3498.51,600.10,592.97,5.44,0000 0000 0000 0000 000000
2018-05-11 02:11:23,0.02,0.12,0.00,25.49,28.60,31.52,13.89,47.15,1019.55,2020.99,3419.72,3045.02,3498.00,600.47,593.06,5.49,0000 0000 0000 0000 000000
2018-05-11 02:16:24,0.02,0.12,0.00,25.47,28.62,31.56,13.89,47.17,1019.56,2020.98,3419.02,3044.87,3497.59,600.27,593.14,5.54,0000 0000 0000 0000 000000
2018-05-11 02:21:26,0.03,0.12,0.00,25.48,28.63,31.60,13.90,47.27,1019.55,2020.95,3418.39,3044.11,3497.01,600.19,592.98,5.59,0000 0000 0000 0000 000000
2018-05-11 02:26:27,0.01,0.12,0.00,25.51,28.65,31.60,13.85,47.19,1019.55,2020.95,3417.90,3043.99,3496.57,600.07,592.69,5.64,0000 0000 0000 0000 000000
2018-05-11 02:31:29,0.02,0.12,0.00,25.57,28.67,31.59,13.83,47.19,1019.55,2020.79,3417.08,3043.37,3496.01,599.78,592.42,5.69,0000 0000 0000 0000 000000
2018-05-11 02:36:30,0.02,0.12,0.00,25.57,28.69,31.60,13.90,47.14,1019.53,2020.65,3416.73,3043.00,3495.63,600.37,592.79,5.74,0000 0000 0000 0000 000000
2018-05-11 02:41:31,-0.01,0.12,0.00,25.57,28.70,31.64,13.84,47.22,1019.49,2020.38,3416.02,3042.68,3495.01,600.22,592.80,5.79,0000 0000 0000 0000 000000
2018-05-11 02:46:33,0.03,0.12,0.00,25.60,28.72,31.66,13.82,47.19,1019.51,2020.20,3415.24,3042.04,3494.32,600.01,592.62,5.84,0000 0000 0000 0000 000000
2018-05-11 02:51:34,0.03,0.12,0.00,25.65,28.74,31.63,13.82,47.24,1019.53,2020.11,3414.55,3041.68,3493.88,599.94,592.45,5.89,0000 0000 0000 0000 000000
2018-05-11 02:56:35,0.01,0.13,0.00,25.65,28.76,31.68,13.75,47.15,1019.55,2020.07,3413.93,3041.04,3493.10,599.76,592.21,5.94,0000 0000 0000 0000 000000
2018-05-11 03:01:37,0.05,0.13,0.00,25.65,28.77,31.71,13.80,47.19,1019.55,2020.03,3413.04,3040.42,3492.32,599.87,592.29,5.99,0000 0000 0000 0000 000000
2018-05-11 03:06:38,0.03,0.13,0.00,25.70,28.80,31.69,13.90,47.08,1019.55,2020.01,3412.14,3039.93,3491.53,600.44,592.75,6.04,0000 0000 0000 0000 000000
2018-05-11 03:11:39,0.05,0.13,0.00,25.71,28.81,31.72,13.75,47.19,1019.55,2020.00,3411.31,3039.12,3490.78,599.50,591.83,6.09,0000 0000 0000 0000 000000
2018-05-11 03:16:41,0.04,0.13,0.00,25.71,28.83,31.75,13.79,47.21,1019.55,2020.00,3410.45,3038.50,3489.97,599.98,592.27,6.14,0000 0000 0000 0000 000000
2018-05-11 03:21:42,0.03,0.14,0.00,25.75,28.85,31.76,13.82,47.15,1019.55,2020.00,3409.55,3037.88,3489.09,599.84,592.11,6.19,0000 0000 0000 0000 000000
2018-05-11 03:26:43,0.04,0.14,0.00,25.79,28.87,31.76,13.84,47.13,1019.55,2020.00,3408.65,3037.07,3488.14,600.03,592.23,6.24,0000 0000 0000 0000 000000
2018-05-11 03:31:45,0.04,0.14,0.00,25.77,28.88,31.79,13.83,47.05,1019.55,2019.98,3407.77,3036.59,3487.43,600.04,592.28,6.29,0000 0000 0000 0000 000000
2018-05-11 03:36:46,0.02,0.14,0.00,25.77,28.90,31.82,13.81,47.17,1019.55,2019.96,3406.95,3036.00,3486.57,599.96,592.17,6.34,0000 0000 0000 0000 000000
2018-05-11 03:41:47,0.04,0.14,0.00,25.78,28.92,31.82,13.77,47.17,1019.55,2019.92,3406.09,3035.29,3485.94,599.81,592.06,6.39,0000 0000 0000 0000 000000
2018-05-11 03:46:49,0.01,0.15,0.00,25.81,28.93,31.86,13.78,47.08,1019.55,2019.79,3405.24,3034.96,3485.09,599.65,591.85,6.44,0000 0000 0000 0000 000000
2018-05-11 03:51:50,0.01,0.15,0.00,25.83,28.95,31.86,13.83,47.15,1019.55,2019.38,3404.50,3034.19,3484.37,600.15,592.18,6.49,0000 0000 0000 0000 000000
2018-05-11 03:56:51,0.01,0.15,0.00,25.86,28.97,31.89,13.86,47.12,1019.55,2019.27,3403.71,3033.94,3483.81,600.20,592.28,6.54,0000 0000 0000 0000 000000
2018-05-11 04:01:53,0.02,0.15,0.00,25.88,28.99,31.92,13.79,47.13,1019.55,2019.10,3403.01,3033.18,3483.03,599.85,591.84,6.59,0000 0000 0000 0000 000000
2018-05-11 04:06:54,0.03,0.15,0.00,25.89,29.00,31.94,13.86,47.16,1019.55,2019.06,3402.15,3032.88,3482.25,600.07,591.95,6.64,0000 0000 0000 0000 000000
2018-05-11 04:11:55,0.04,0.15,0.00,25.90,29.02,31.93,13.79,47.12,1019.55,2019.02,3401.28,3032.08,3481.67,600.16,592.11,6.69,0000 0000 0000 0000 000000
2018-05-11 04:16:56,0.03,0.15,0.00,25.86,29.03,31.97,13.81,47.30,1019.55,2019.00,3400.45,3031.81,3480.95,600.15,592.14,6.74,0000 0000 0000 0000 000000
2018-05-11 04:21:58,0.04,0.15,0.00,25.81,29.05,31.95,13.83,47.16,1019.55,2019.00,3399.71,3031.07,3480.13,600.24,592.34,6.79,0000 0000 0000 0000 000000
2018-05-11 04:26:59,0.02,0.16,0.00,25.77,29.05,31.95,13.83,47.21,1019.55,2019.00,3398.94,3030.82,3479.55,599.57,591.68,6.84,0000 0000 0000 0000 000000
2018-05-11 04:32:01,0.04,0.16,0.00,25.77,29.07,31.97,13.81,47.24,1019.55,2019.00,3398.03,3030.04,3478.72,599.65,591.76,6.89,0000 0000 0000 0000 000000
2018-05-11 04:37:02,0.04,0.16,0.00,25.77,29.07,31.99,13.83,47.24,1019.55,2019.00,3397.17,3029.56,3477.99,600.11,592.32,6.94,0000 0000 0000 0000 000000
2018-05-11 04:42:04,0.03,0.16,0.00,25.77,29.09,32.01,13.83,47.13,1019.55,2019.00,3396.22,3029.00,3477.14,599.78,592.08,6.99,0000 0000 0000 0000 000000
2018-05-11 04:47:05,0.05,0.16,0.00,25.77,29.10,31.98,13.83,47.08,1019.55,2018.98,3395.33,3028.33,3476.28,599.86,592.15,7.04,0000 0000 0000 0000 000000
2018-05-11 04:52:07,0.02,0.17,0.00,25.78,29.10,32.00,13.81,47.11,1019.55,2018.98,3394.55,3027.99,3475.68,599.60,591.74,7.09,0000 0000 0000 0000 000000
2018-05-11 04:57:08,0.03,0.17,0.00,25.77,29.10,32.00,13.78,47.25,1019.55,2018.98,3393.76,3027.42,3475.02,599.47,591.85,7.14,0000 0000 0000 0000 000000
2018-05-11 05:02:09,0.03,0.17,0.00,25.78,29.11,32.00,13.87,47.19,1019.55,2018.99,3392.91,3026.95,3474.35,600.00,592.25,7.19,0000 0000 0000 0000 000000
2018-05-11 05:07:11,0.05,0.17,0.00,25.80,29.12,32.00,13.79,47.17,1019.55,2018.97,3392.03,3026.14,3473.43,599.81,592.00,7.24,0000 0000 0000 0000 000000
2018-05-11 05:12:12,0.02,0.17,0.00,25.80,29.12,32.01,13.82,47.13,1019.55,2018.98,3391.18,3025.90,3472.86,599.70,591.86,7.30,0000 0000 0000 0000 000000
2018-05-11 05:17:13,0.04,0.18,0.00,25.78,29.12,32.03,13.85,47.17,1019.55,2018.98,3390.60,3025.09,3472.05,600.28,592.47,7.35,0000 0000 0000 0000 000000
2018-05-11 05:22:14,0.03,0.18,0.00,25.78,29.12,32.01,13.82,47.17,1019.55,2018.98,3389.84,3024.85,3471.31,599.71,591.77,7.40,0000 0000 0000 0000 000000
2018-05-11 05:27:16,0.03,0.18,0.00,25.78,29.12,32.01,13.82,47.09,1019.55,2018.97,3388.99,3024.09,3470.74,600.06,592.25,7.45,0000 0000 0000 0000 000000
2018-05-11 05:32:17,0.02,0.18,0.00,25.77,29.13,32.02,13.83,47.22,1019.53,2018.96,3388.13,3023.98,3470.02,599.98,592.15,7.50,0000 0000 0000 0000 000000
2018-05-11 05:37:19,0.04,0.18,0.00,25.79,29.14,32.03,13.84,47.26,1019.54,2018.94,3387.31,3023.19,3469.29,600.05,592.06,7.55,0000 0000 0000 0000 000000
2018-05-11 05:42:20,0.03,0.18,0.00,25.78,29.15,32.02,13.75,47.11,1019.54,2018.96,3386.51,3022.81,3468.66,599.86,592.05,7.60,0000 0000 0000 0000 000000
2018-05-11 05:47:21,0.03,0.19,0.00,25.80,29.15,32.02,13.84,47.15,1019.53,2018.94,3385.65,3022.05,3467.96,600.03,592.20,7.65,0000 0000 0000 0000 000000
2018-05-11 05:52:22,0.02,0.19,0.00,25.80,29.15,32.03,13.83,47.05,1019.51,2018.90,3385.00,3021.89,3467.17,599.87,592.09,7.70,0000 0000 0000 0000 000000
2018-05-11 05:57:24,0.02,0.19,0.00,25.80,29.15,32.04,13.90,47.12,1019.48,2018.79,3384.19,3021.13,3466.70,600.29,592.37,7.75,0000 0000 0000 0000 000000
2018-05-11 06:02:25,0.03,0.19,0.00,25.80,29.15,32.05,13.80,47.06,1019.40,2018.85,3383.64,3020.99,3466.03,599.98,592.03,7.80,0000 0000 0000 0000 000000
2018-05-11 06:07:27,0.03,0.19,0.00,25.80,29.17,32.07,13.80,47.06,1019.40,2018.81,3382.85,3020.51,3465.51,600.06,592.18,7.85,0000 0000 0000 0000 000000
2018-05-11 06:12:28,0.02,0.19,0.00,25.81,29.17,32.06,13.85,47.07,1019.40,2018.81,3382.06,3020.02,3465.00,600.32,592.32,7.90,0000 0000 0000 0000 000000
2018-05-11 06:17:29,0.03,0.20,0.00,25.82,29.17,32.04,13.82,47.21,1019.31,2018.72,3381.21,3019.73,3464.25,599.70,591.79,7.95,0000 0000 0000 0000 000000
2018-05-11 06:22:30,0.03,0.20,0.00,25.82,29.17,32.06,13.81,47.30,1019.28,2018.68,3380.47,3019.03,3463.79,599.90,591.91,8.00,0000 0000 0000 0000 000000
2018-05-11 06:27:31,0.02,0.20,0.00,25.80,29.17,32.08,13.91,47.22,1019.39,2018.62,3379.82,3018.87,3463.03,599.98,592.05,8.05,0000 0000 0000 0000 000000
2018-05-11 06:32:33,0.02,0.20,0.00,25.80,29.17,32.08,13.80,47.17,1019.48,2018.46,3379.00,3018.10,3462.40,599.79,591.91,8.10,0000 0000 0000 0000 000000
2018-05-11 06:37:34,0.03,0.20,0.00,25.81,29.18,32.06,13.84,47.11,1019.45,2018.61,3378.18,3017.96,3461.96,599.87,592.02,8.15,0000 0000 0000 0000 000000
2018-05-11 06:42:35,0.05,0.20,0.00,25.80,29.19,32.10,13.83,47.24,1019.49,2018.61,3377.59,3017.34,3461.22,599.91,592.01,8.20,0000 0000 0000 0000 000000
2018-05-11 06:47:37,0.00,0.20,0.00,25.80,29.20,32.07,13.85,47.13,1019.51,2018.49,3376.84,3017.00,3460.65,600.07,592.20,8.25,0000 0000 0000 0000 000000
2018-05-11 06:52:38,0.06,0.21,0.00,25.80,29.20,32.08,13.78,47.20,1019.53,2018.70,3376.04,3016.67,3460.02,599.93,592.14,8.30,0000 0000 0000 0000 000000
2018-05-11 06:57:39,0.03,0.21,0.00,25.79,29.20,32.08,13.89,47.16,1019.53,2018.74,3375.35,3016.04,3459.52,600.11,592.33,8.35,0000 0000 0000 0000 000000
2018-05-11 07:02:40,0.02,0.21,0.00,25.78,29.20,32.07,13.83,47.03,1019.53,2018.78,3374.62,3015.79,3458.89,600.09,592.31,8.40,0000 0000 0000 0000 000000
2018-05-11 07:07:42,0.04,0.21,0.00,25.77,29.20,32.08,13.85,47.26,1019.54,2018.80,3373.79,3015.04,3458.06,600.19,592.41,8.45,0000 0000 0000 0000 000000
2018-05-11 07:12:43,0.03,0.21,0.00,25.78,29.20,32.08,13.84,47.10,1019.55,2018.61,3372.89,3014.44,3457.23,600.13,592.32,8.50,0000 0000 0000 0000 000000
2018-05-11 07:17:44,0.03,0.22,0.00,25.77,29.20,32.09,13.89,47.13,1019.54,2018.64,3372.02,3014.00,3456.57,599.84,592.03,8.55,0000 0000 0000 0000 000000
2018-05-11 07:22:46,0.04,0.22,0.00,25.77,29.20,32.09,13.87,47.17,1019.53,2018.59,3371.13,3013.49,3456.01,600.09,592.34,8.60,0000 0000 0000 0000 000000
2018-05-11 07:27:47,0.04,0.22,0.00,25.77,29.20,32.08,13.84,47.16,1019.54,2018.68,3370.54,3013.01,3455.28,600.03,592.24,8.65,0000 0000 0000 0000 000000
2018-05-11 07:32:48,0.02,0.22,0.00,25.77,29.20,32.10,13.84,47.17,1019.50,2018.64,3369.94,3012.75,3454.92,599.94,592.26,8.70,0000 0000 0000 0000 000000
2018-05-11 07:37:50,0.03,0.22,0.00,25.77,29.20,32.12,13.84,47.16,1019.53,2018.62,3369.10,3012.05,3454.11,600.13,592.31,8.75,0000 0000 0000 0000 000000
2018-05-11 07:42:51,0.02,0.22,0.00,25.80,29.20,32.11,13.73,47.04,1019.54,2018.47,3368.27,3011.72,3453.47,599.62,591.78,8.80,0000 0000 0000 0000 000000
2018-05-11 07:47:52,0.03,0.22,0.00,25.80,29.20,32.09,13.83,47.20,1019.54,2018.40,3367.50,3011.03,3452.78,600.16,592.29,8.85,0000 0000 0000 0000 000000
2018-05-11 07:52:54,0.04,0.23,0.00,25.80,29.20,32.11,13.83,47.13,1019.53,2018.39,3366.87,3010.61,3452.03,599.99,592.16,8.90,0000 0000 0000 0000 000000
2018-05-11 07:57:55,0.03,0.23,0.00,25.80,29.20,32.09,13.86,47.16,1019.52,2018.48,3366.03,3010.02,3451.44,600.41,592.57,8.95,0000 0000 0000 0000 000000
2018-05-11 08:02:57,0.02,0.23,0.00,25.79,29.20,32.12,13.84,47.21,1019.54,2018.39,3365.19,3009.69,3450.92,600.18,592.47,9.00,0000 0000 0000 0000 000000
2018-05-11 08:07:58,0.04,0.23,0.00,25.78,29.20,32.11,13.92,47.22,1019.55,2018.36,3364.55,3009.03,3450.15,600.35,592.58,9.05,0000 0000 0000 0000 000000
2018-05-11 08:12:59,0.01,0.23,0.00,25.79,29.20,32.11,13.78,47.21,1019.55,2018.30,3363.89,3008.90,3449.63,599.76,592.00,9.10,0000 0000 0000 0000 000000
2018-05-11 08:18:01,0.03,0.23,0.00,25.81,29.20,32.14,13.81,47.17,1019.55,2018.21,3363.08,3008.15,3448.91,599.68,591.86,9.15,0000 0000 0000 0000 000000
2018-05-11 08:23:02,0.02,0.24,0.00,25.86,29.21,32.17,13.81,47.10,1019.55,2018.13,3362.16,3007.93,3448.09,599.75,591.80,9.20,0000 0000 0000 0000 000000
2018-05-11 08:28:03,0.04,0.24,0.00,25.90,29.22,32.15,13.89,47.21,1019.57,2018.11,3361.47,3007.17,3447.60,600.18,592.20,9.25,0000 0000 0000 0000 000000
2018-05-11 08:33:05,0.01,0.24,0.00,25.92,29.22,32.11,13.81,47.21,1019.56,2018.09,3360.77,3006.95,3446.94,599.98,591.90,9.30,0000 0000 0000 0000 000000
2018-05-11 08:38:06,0.04,0.24,0.00,25.95,29.22,32.12,13.77,47.22,1019.56,2018.03,3359.95,3006.12,3446.05,599.96,591.81,9.35,0000 0000 0000 0000 000000
2018-05-11 08:43:07,0.03,0.24,0.00,25.95,29.22,32.12,13.81,47.09,1019.59,2018.04,3359.08,3005.96,3445.50,599.80,591.71,9.40,0000 0000 0000 0000 000000
2018-05-11 08:48:08,0.04,0.24,0.00,25.97,29.24,32.12,13.91,47.22,1019.65,2018.02,3358.28,3005.22,3444.69,600.47,592.34,9.45,0000 0000 0000 0000 000000
2018-05-11 08:53:10,0.05,0.25,0.00,25.96,29.25,32.09,13.83,47.08,1019.85,2018.01,3357.16,3004.47,3443.67,600.02,591.97,9.50,0000 0000 0000 0000 000000
2018-05-11 08:58:11,0.03,0.25,0.00,25.96,29.25,32.07,13.78,47.04,1019.92,2018.01,3356.12,3003.96,3442.86,600.38,592.35,9.56,0000 0000 0000 0000 000000
2018-05-11 09:03:12,0.04,0.25,0.00,25.95,29.25,32.08,13.88,47.11,1020.02,2018.01,3355.40,3003.22,3442.05,600.31,592.43,9.61,0000 0000 0000 0000 000000
2018-05-11 09:08:13,0.02,0.25,0.00,25.95,29.25,32.09,13.86,47.17,1020.03,2018.00,3354.75,3002.97,3441.44,599.88,592.02,9.66,0000 0000 0000 0000 000000
2018-05-11 09:13:15,0.03,0.26,0.00,25.94,29.25,32.09,13.84,47.04,1020.03,2018.01,3353.94,3002.28,3440.86,599.96,592.14,9.71,0000 0000 0000 0000 000000
2018-05-11 09:18:16,0.02,0.26,0.00,25.93,29.25,32.07,13.81,47.10,1020.03,2018.00,3353.08,3001.96,3440.06,600.04,592.23,9.76,0000 0000 0000 0000 000000
2018-05-11 09:23:18,0.05,0.26,0.00,25.91,29.25,32.08,13.84,47.24,1020.03,2018.00,3352.36,3001.27,3439.42,600.00,592.25,9.81,0000 0000 0000 0000 000000
2018-05-11 09:28:19,0.03,0.26,0.00,25.87,29.25,32.09,13.75,47.20,1020.03,2018.00,3351.27,3000.91,3438.64,599.59,591.89,9.86,0000 0000 0000 0000 000000
2018-05-11 09:33:21,0.03,0.26,0.00,25.85,29.25,32.08,13.94,47.04,1020.04,2018.00,3350.62,3000.14,3438.02,600.24,592.59,9.91,0000 0000 0000 0000 000000
2018-05-11 09:38:22,0.01,0.26,0.00,25.84,29.25,32.08,13.82,47.15,1020.04,2018.00,3349.97,3000.00,3437.60,599.73,592.05,9.96,0000 0000 0000 0000 000000
2018-05-11 09:43:23,0.03,0.27,0.00,25.83,29.25,32.09,13.79,47.13,1020.04,2018.00,3349.17,2999.61,3437.00,600.14,592.46,10.01,0000 0000 0000 0000 000000
2018-05-11 09:48:25,0.03,0.27,0.00,25.80,29.24,32.10,13.73,47.17,1020.04,2018.00,3348.59,2999.03,3436.25,599.76,592.33,10.06,0000 0000 0000 0000 000000
2018-05-11 09:53:26,0.03,0.27,0.00,25.77,29.23,32.07,13.81,47.22,1020.05,2018.00,3347.87,2998.65,3435.75,599.65,592.17,10.11,0000 0000 0000 0000 000000
2018-05-11 09:58:27,0.02,0.27,0.00,25.75,29.22,32.06,13.86,47.11,1020.06,2018.00,3347.06,2998.03,3435.04,599.88,592.42,10.16,0000 0000 0000 0000 000000
2018-05-11 10:03:28,0.02,0.27,0.00,25.72,29.22,32.05,13.87,47.17,1020.06,2018.00,3346.46,2997.95,3434.57,599.93,592.61,10.21,0000 0000 0000 0000 000000
2018-05-11 10:08:29,0.03,0.27,0.00,25.71,29.22,32.05,13.79,47.27,1020.06,2018.00,3345.84,2997.27,3434.00,599.67,592.43,10.26,0000 0000 0000 0000 000000
2018-05-11 10:13:30,0.02,0.28,0.00,25.68,29.22,32.05,13.81,47.23,1020.07,2018.00,3345.05,2997.00,3433.50,599.86,592.67,10.31,0000 0000 0000 0000 000000
2018-05-11 10:18:32,0.01,0.28,0.00,25.67,29.20,32.07,13.88,47.13,1020.05,2018.00,3344.63,2996.89,3433.01,600.14,592.75,10.36,0000 0000 0000 0000 000000
2018-05-11 10:23:33,0.03,0.28,0.00,25.65,29.20,32.06,13.84,47.27,1020.09,2018.00,3344.00,2996.17,3432.60,599.68,592.57,10.41,0000 0000 0000 0000 000000
2018-05-11 10:28:34,0.02,0.28,0.00,25.65,29.20,32.06,13.86,47.15,1020.13,2018.00,3343.34,2996.00,3432.02,600.06,592.87,10.46,0000 0000 0000 0000 000000
2018-05-11 10:33:35,0.01,0.28,0.00,25.63,29.18,32.05,13.80,47.15,1020.21,2018.00,3342.95,2995.94,3431.74,599.50,592.44,10.51,0000 0000 0000 0000 000000
2018-05-11 10:38:37,0.04,0.28,0.00,25.65,29.17,32.03,13.87,47.21,1020.26,2018.02,3342.14,2995.35,3431.06,599.95,592.89,10.56,0000 0000 0000 0000 000000
2018-05-11 10:43:38,0.00,0.28,0.00,25.59,29.16,32.09,13.84,47.11,1020.38,2018.03,3341.81,2995.02,3430.97,599.75,592.74,10.61,0000 0000 0000 0000 000000
2018-05-11 10:48:39,0.02,0.28,0.00,25.55,29.15,32.05,13.83,47.22,1020.42,2018.03,3341.06,2995.00,3430.31,599.88,593.06,10.66,0000 0000 0000 0000 000000
2018-05-11 10:53:41,0.02,0.28,0.00,25.51,29.13,32.06,13.91,47.31,1020.49,2018.10,3340.77,2994.77,3430.00,599.59,592.97,10.71,0000 0000 0000 0000 000000
2018-05-11 10:58:42,0.05,0.29,0.00,25.47,29.12,32.04,13.89,47.19,1020.51,2018.28,3340.06,2994.14,3429.79,600.04,593.33,10.76,0000 0000 0000 0000 000000
2018-05-11 11:03:43,0.03,0.29,0.00,25.44,29.10,32.03,13.87,47.17,1020.51,2018.37,3339.54,2994.00,3429.06,600.02,593.51,10.81,0000 0000 0000 0000 000000
2018-05-11 11:08:44,0.04,0.29,0.00,25.41,29.09,32.03,13.84,47.16,1020.52,2018.68,3339.01,2993.96,3428.99,599.98,593.38,10.86,0000 0000 0000 0000 000000
2018-05-11 11:13:46,0.04,0.29,0.00,25.39,29.07,32.01,13.88,47.19,1020.51,2018.88,3338.60,2993.51,3428.48,600.07,593.72,10.91,0000 0000 0000 0000 000000
2018-05-11 11:18:47,0.01,0.29,0.00,25.36,29.05,31.97,13.92,47.19,1020.43,2018.96,3338.03,2993.07,3428.02,600.10,593.81,10.96,0000 0000 0000 0000 000000
2018-05-11 11:23:48,0.01,0.30,0.00,25.32,29.04,31.98,13.88,47.33,1020.37,2018.96,3337.71,2993.00,3427.96,599.98,593.58,11.01,0000 0000 0000 0000 000000
2018-05-11 11:28:50,0.02,0.30,0.00,25.32,29.02,31.98,13.84,47.24,1020.38,2018.98,3337.05,2992.97,3427.35,599.78,593.43,11.06,0000 0000 0000 0000 000000
2018-05-11 11:33:51,0.03,0.30,0.00,25.25,29.00,32.04,13.90,47.13,1020.21,2018.99,3336.62,2992.53,3427.00,599.94,593.56,11.11,0000 0000 0000 0000 000000
2018-05-11 11:38:53,0.01,0.30,0.00,25.21,28.99,32.07,13.95,47.23,1020.22,2018.99,3336.01,2992.02,3426.77,600.15,593.82,11.16,0000 0000 0000 0000 000000
2018-05-11 11:43:54,0.02,0.30,0.00,25.18,28.96,32.02,13.89,47.29,1020.27,2018.99,3335.56,2992.00,3426.07,600.16,593.78,11.21,0000 0000 0000 0000 000000
2018-05-11 11:48:56,0.00,0.30,0.00,25.15,28.95,32.02,13.87,47.28,1020.18,2019.01,3335.04,2991.98,3426.00,600.11,593.96,11.26,0000 0000 0000 0000 000000
2018-05-11 11:53:57,0.02,0.30,0.00,25.13,28.92,32.02,13.87,47.33,1020.22,2019.05,3334.66,2991.68,3425.78,599.98,593.86,11.31,0000 0000 0000 0000 000000
2018-05-11 11:58:58,0.03,0.30,0.00,25.13,28.90,32.01,13.87,47.24,1020.25,2019.06,3334.03,2991.08,3425.06,599.97,593.91,11.36,0000 0000 0000 0000 000000
2018-05-11 12:03:59,0.03,0.30,0.00,25.12,28.88,31.96,13.90,47.38,1020.18,2019.26,3333.80,2991.00,3425.00,600.09,593.97,11.41,0000 0000 0000 0000 000000
2018-05-11 12:09:01,0.05,0.31,0.00,25.10,28.86,31.88,13.89,47.29,1020.20,2019.64,3333.06,2990.98,3424.64,600.26,594.07,11.46,0000 0000 0000 0000 000000
2018-05-11 12:14:02,0.03,0.31,0.00,25.09,28.84,31.91,13.93,47.33,1020.25,2019.87,3332.88,2990.80,3424.04,600.15,594.02,11.51,0000 0000 0000 0000 000000
2018-05-11 12:19:03,0.03,0.31,0.00,25.07,28.81,31.89,13.87,47.32,1020.33,2019.96,3332.07,2990.17,3423.97,599.79,593.93,11.56,0000 0000 0000 0000 000000
2018-05-11 12:24:05,0.03,0.31,0.00,25.00,28.79,31.92,13.89,47.33,1020.20,2019.99,3331.20,2989.99,3423.23,599.66,593.75,11.61,0000 0000 0000 0000 000000
2018-05-11 12:29:06,0.01,0.31,0.00,24.97,28.77,31.86,13.91,47.34,1020.14,2019.99,3330.87,2989.82,3422.98,599.51,593.69,11.66,0000 0000 0000 0000 000000
2018-05-11 12:34:07,0.04,0.32,0.00,24.94,28.75,31.84,13.95,47.35,1020.12,2019.99,3330.11,2989.18,3422.52,600.42,594.57,11.71,0000 0000 0000 0000 000000
2018-05-11 12:39:09,0.01,0.32,0.00,24.90,28.72,31.83,13.91,47.44,1020.11,2019.99,3329.72,2989.01,3422.01,600.02,594.50,11.76,0000 0000 0000 0000 000000
2018-05-11 12:44:10,0.01,0.32,0.00,24.87,28.70,31.81,13.89,47.30,1020.05,2019.99,3329.05,2988.99,3421.91,599.78,594.20,11.81,0000 0000 0000 0000 000000
2018-05-11 12:49:11,0.03,0.32,0.00,24.86,28.67,31.76,13.97,47.38,1020.05,2020.02,3328.71,2988.67,3421.33,600.22,594.57,11.87,0000 0000 0000 0000 000000
2018-05-11 12:54:12,0.01,0.32,0.00,24.83,28.65,31.74,13.90,47.38,1020.05,2020.03,3328.04,2988.09,3421.00,599.79,594.18,11.92,0000 0000 0000 0000 000000
2018-05-11 12:59:13,0.03,0.32,0.00,24.80,28.63,31.71,13.87,47.29,1020.06,2020.15,3327.64,2988.00,3420.81,599.93,594.41,11.97,0000 0000 0000 0000 000000